Wind_Speed
67 64 63 63 60 59 58 56 54 54 51 53 50 46 46 44 43 42 37 36 34 31 31 28 26 25 19 17 21 19 17 19 17 20 15 17 16 15 12 14 16 14 18 19 18 18 20
66 66 64 64 62 60 60 59 57 56 52 56 53 49 48 48 45 45 41 39 37 33 35 31 28 28 23 20 22 23 21 19 18 18 19 16 17 18 17 16 15 15 14 17 18 17 21
73 70 64 63 63 62 60 60 59 57 55 56 53 52 49 49 47 45 44 42 41 37 37 35 33 30 27 24 23 25 22 22 22 21 18 21 19 17 19 21 19 18 16 20 21 21 20
76 75 74 72 68 63 62 60 62 58 57 56 53 52 50 49 49 47 46 44 45 40 42 38 38 31 32 28 26 26 25 23 22 23 23 21 26 24 20 22 24 20 19 21 23 24 25
62 64 68 60 71 65 65 61 60 59 57 54 55 50 50 51 47 47 46 46 46 43 42 42 40 37 34 31 29 28 26 24 25 22 26 26 28 32 32 23 24 25 23 20 23 23 24
66 56 69 63 72 76 75 70 71 59 58 57 54 53 51 51 46 48 49 46 46 45 45 44 42 42 36 32 32 31 32 28 25 27 25 27 29 28 30 23 24 28 24 20 19 23 27
51 55 58 68 63 66 60 71 62 63 61 64 67 59 58 54 52 54 51 47 46 50 47 46 46 43 40 37 34 33 33 32 28 26 24 28 30 26 31 29 22 26 30 25 24 26 29
39 33 49 53 62 51 61 50 53 57 52 60 51 68 51 53 52 53 47 55 55 51 46 42 43 44 40 43 38 34 34 35 32 28 26 28 27 30 26 32 26 24 26 26 22 26 33
50 41 38 34 30 39 49 58 49 41 35 34 35 28 30 31 41 55 49 47 45 48 56 49 48 49 45 50 42 36 35 36 35 33 29 27 29 33 32 27 33 24 29 28 30 25 27
52 52 47 45 42 39 32 32 36 39 36 32 34 37 31 33 25 28 29 29 25 40 52 51 48 47 49 51 45 40 37 35 36 31 32 27 31 34 36 32 31 29 29 32 30 30 29
53 53 54 49 52 48 47 46 45 43 43 44 44 40 38 43 36 31 37 33 31 22 24 23 27 36 46 49 47 43 38 39 35 34 35 28 31 34 33 35 33 30 28 25 31 31 36
56 55 54 55 55 54 54 52 49 48 48 47 46 46 44 45 40 37 43 34 35 33 27 24 24 22 22 34 47 42 38 39 38 37 36 30 35 34 32 36 33 30 33 32 28 30 37
60 59 59 57 56 57 56 56 56 54 53 51 49 49 48 45 45 44 46 48 44 40 33 31 29 24 19 19 31 40 34 36 34 34 33 31 32 34 33 35 33 32 35 39 39 36 35
63 63 62 61 60 59 59 59 59 57 55 54 53 51 50 48 47 50 47 48 45 40 39 37 36 35 31 31 28 35 34 33 31 32 32 34 31 35 33 34 35 31 34 41 47 47 41
65 64 65 64 63 63 62 61 60 59 58 57 56 54 53 50 51 50 50 50 43 41 40 36 36 33 35 34 34 30 36 37 32 34 35 37 35 35 36 33 35 35 37 41 47 48 49
68 65 64 64 64 64 63 63 62 59 59 59 57 55 53 51 51 49 49 48 48 42 40 44 42 38 39 35 39 34 34 37 34 34 36 37 35 36 36 36 37 37 40 43 45 53 55
70 68 65 63 64 66 64 62 61 58 57 57 56 55 50 49 50 48 51 47 44 43 43 41 41 41 43 42 34 27 26 30 32 36 37 39 37 38 37 36 38 43 42 45 49 51 56
71 69 68 66 65 65 65 63 61 59 58 57 56 55 51 51 53 50 48 46 42 43 39 43 41 42 38 37 36 30 22 27 30 32 38 39 41 43 38 37 41 44 47 48 48 53 58
73 70 68 68 67 66 65 63 62 61 59 57 55 52 52 51 52 50 48 45 43 39 38 41 39 40 37 36 41 35 33 32 39 36 38 40 44 43 43 41 41 45 49 52 52 56 56
80 77 75 73 70 68 68 66 65 64 62 60 59 58 58 57 54 51 48 46 44 37 37 39 41 36 36 34 38 42 36 36 36 40 43 36 41 42 43 42 45 48 51 53 52 53 59
79 78 77 74 72 68 68 68 68 65 64 63 63 62 59 56 55 54 51 48 44 44 41 42 43 45 45 46 31 37 39 37 34 38 47 53 51 52 50 54 53 52 56 55 52 54 56
84 81 80 77 74 72 71 69 68 67 66 66 64 62 61 57 56 53 49 47 46 45 41 36 37 35 38 48 49 39 42 39 40 40 47 43 45 47 50 48 49 56 58 55 54 56 53
88 85 82 81 77 73 72 69 67 68 67 64 63 62 61 58 57 54 49 47 43 43 42 39 35 36 39 35 39 41 44 44 45 38 43 43 45 51 56 55 58 62 53 56 53 49 48
77 81 85 83 77 73 72 71 69 68 67 64 61 60 60 58 57 50 47 46 43 43 43 40 39 39 36 40 44 45 48 47 42 38 42 47 49 48 57 59 61 56 51 49 49 49 44
72 70 72 74 73 71 68 68 69 67 67 64 63 62 62 61 56 54 51 49 51 46 44 42 40 38 39 41 48 45 45 45 46 44 44 46 49 49 53 55 57 55 53 50 45 45 43
67 71 72 70 69 69 67 67 65 65 63 65 62 63 62 61 58 59 55 51 51 48 43 42 41 40 38 37 42 48 47 43 46 46 45 46 47 46 47 52 58 47 46 42 41 44 47
63 64 67 70 72 71 70 67 66 65 65 65 64 63 63 60 61 62 59 55 52 48 45 45 45 43 40 42 44 45 42 39 42 40 40 46 50 48 47 51 48 43 41 44 45 48 50
60 61 62 63 65 66 67 66 65 64 63 63 61 62 61 61 61 62 62 58 53 49 46 43 44 43 42 42 42 44 41 39 37 38 45 46 45 48 45 43 44 40 43 44 48 51 53
62 61 60 60 61 62 62 62 62 61 60 60 59 59 58 57 55 58 58 56 52 49 47 45 44 45 42 26 24 30 37 37 33 36 35 36 34 36 37 38 38 41 44 48 50 53 56
Wind_Direction
236 235 236 235 234 236 238 238 238 240 241 243 243 242 246 246 247 248 247 248 250 253 256 256 262 267 267 278 290 293 296 305 321 326 335 337 322 310 295 292 289 283 270 277 277 286 295
237 235 235 237 236 236 238 240 238 239 239 244 244 241 243 247 247 250 248 247 248 250 255 258 257 258 263 266 275 285 294 296 311 318 324 327 334 318 302 292 280 269 274 273 278 278 274
234 232 234 237 237 235 237 239 241 239 239 241 243 243 243 246 248 248 249 249 250 249 252 256 256 258 258 259 266 275 281 289 299 306 317 320 327 325 308 296 293 278 259 256 251 253 259
237 236 235 235 236 236 239 239 240 241 242 242 242 244 244 245 246 247 249 247 248 248 251 252 254 253 259 260 261 265 272 281 287 297 304 307 300 311 312 295 287 280 272 268 266 264 264
224 237 229 232 232 234 236 237 241 241 243 243 244 244 242 248 247 249 250 249 249 251 250 251 252 252 254 258 261 261 262 270 280 283 285 298 301 299 298 294 285 281 279 275 272 276 268
233 229 225 227 236 237 236 241 237 237 241 246 246 244 246 244 245 248 250 251 253 251 251 251 255 256 254 252 257 260 263 265 269 275 282 289 299 305 310 298 282 287 285 284 276 274 260
225 228 221 227 234 239 233 236 240 240 243 244 242 242 243 252 248 248 251 250 256 259 255 253 258 253 256 255 252 256 259 263 266 267 272 286 290 303 316 312 290 283 287 280 262 267 262
257 245 229 219 218 224 223 226 232 240 246 242 249 246 247 245 248 250 247 252 258 257 252 257 257 260 259 262 254 253 254 259 265 267 268 282 281 290 302 311 299 276 267 273 264 262 274
241 245 250 246 241 232 217 224 225 222 224 245 235 247 236 238 248 246 249 253 265 253 253 250 262 260 254 256 257 254 253 254 259 266 266 273 277 282 290 301 302 309 277 275 281 272 276
235 235 236 239 243 247 243 228 239 241 244 246 245 250 260 254 242 244 228 252 269 250 253 257 245 255 259 261 256 250 251 254 256 259 263 267 273 279 286 296 299 303 303 280 279 280 269
235 234 233 233 234 239 243 242 240 241 242 243 243 243 252 254 253 256 241 250 268 266 268 261 249 254 258 253 255 248 248 250 254 254 257 267 269 275 285 290 296 307 310 301 280 282 280
238 236 235 236 237 236 238 241 238 241 243 243 245 245 242 249 252 250 260 239 253 268 267 273 268 263 272 256 249 252 249 247 252 256 258 261 265 274 277 284 295 305 302 299 297 295 288
239 238 238 236 237 238 239 241 243 244 243 244 244 245 247 248 249 247 246 253 259 258 268 268 268 268 271 286 261 250 245 246 248 251 256 256 264 267 273 279 290 298 297 296 295 299 304
237 237 237 238 237 238 240 240 242 243 244 244 244 245 247 248 247 249 248 251 253 255 257 266 266 264 268 282 285 255 245 241 246 252 255 259 258 264 270 277 290 290 297 297 299 303 302
237 238 238 237 238 237 239 241 242 243 244 245 245 246 246 248 250 251 249 252 252 255 259 253 260 256 270 276 277 266 249 247 249 249 257 264 264 265 271 278 283 291 291 294 298 298 300
233 234 237 237 237 239 239 240 241 241 243 243 243 243 243 244 247 247 253 251 252 255 253 253 247 260 268 276 275 272 253 253 249 248 257 259 262 265 270 275 279 286 289 291 295 298 301
233 233 232 233 235 237 237 238 239 240 241 242 241 242 240 242 243 244 249 251 255 255 255 249 257 256 259 265 268 273 276 268 260 248 251 261 260 262 266 275 281 285 290 291 293 296 298
234 234 234 233 233 234 235 236 237 238 239 240 241 241 238 237 243 247 249 254 253 253 253 256 246 255 251 258 251 260 258 266 257 254 249 255 261 263 265 268 276 279 281 284 287 293 294
234 234 234 235 235 235 235 235 236 237 239 239 240 239 240 240 242 244 246 246 248 248 248 242 247 240 245 245 250 252 260 264 255 258 263 268 260 264 267 270 274 276 277 282 289 295 297
235 236 236 236 234 233 234 235 235 236 237 237 237 236 237 239 239 240 241 243 244 242 245 245 242 245 246 248 248 252 260 267 265 271 265 263 263 272 273 276 278 280 282 284 292 297 302
233 233 234 234 235 234 233 233 234 234 235 234 236 238 238 240 240 239 238 244 245 247 242 245 245 250 251 250 247 260 257 267 268 250 265 273 272 272 276 277 280 281 281 285 293 297 299
231 232 232 232 233 233 232 232 232 232 232 233 235 236 237 236 235 233 237 241 241 238 244 243 247 255 256 253 251 257 251 257 262 264 265 274 268 272 274 276 280 281 283 291 294 298 296
231 229 231 232 232 232 232 231 232 233 235 236 236 235 233 232 232 232 240 237 235 238 239 244 248 251 255 262 258 249 247 255 269 271 263 272 282 279 275 275 276 276 291 294 295 295 294
234 233 231 232 233 233 230 229 229 232 235 236 236 234 236 236 234 240 235 238 236 236 237 239 245 248 252 252 256 259 255 253 255 258 264 273 282 277 276 280 280 290 297 298 298 299 298
225 226 229 230 230 230 229 230 228 229 231 234 232 232 231 231 230 231 232 232 233 233 237 238 244 246 249 254 255 257 262 256 248 254 260 278 283 280 277 277 281 288 296 295 298 296 296
227 223 220 221 224 224 224 224 226 226 227 230 230 230 229 228 228 227 229 228 228 233 239 241 244 248 255 262 261 257 264 259 255 257 268 282 285 284 282 279 285 290 291 294 298 296 299
223 223 223 219 219 221 222 222 222 222 223 226 227 228 226 226 226 224 225 226 227 232 235 238 242 247 256 261 261 256 257 264 259 267 278 283 287 292 287 286 289 287 292 297 301 299 296
222 221 220 220 218 218 220 221 220 221 223 224 224 223 224 224 223 222 223 224 226 232 239 239 242 246 258 266 262 256 262 264 267 278 283 283 287 289 291 289 284 283 289 295 296 297 298
220 219 219 218 219 218 218 219 218 220 220 220 219 218 219 218 219 218 220 223 225 232 236 238 239 246 254 244 258 262 261 267 275 277 277 281 285 285 279 276 275 283 289 291 297 298 299
Height
5778 5784 5790 5795 5799 5804 5810 5814 5818 5823 5826 5833 5836 5838 5843 5847 5851 5854 5856 5858 5858 5860 5862 5865 5866 5867 5867 5869 5868 5868 5867 5866 5866 5865 5863 5863 5862 5861 5857 5855 5855 5857 5853 5853 5853 5853 5853
5767 5773 5777 5784 5789 5794 5799 5804 5808 5813 5815 5823 5827 5829 5833 5838 5842 5847 5849 5850 5852 5852 5856 5858 5859 5862 5863 5864 5863 5863 5864 5863 5861 5861 5861 5860 5858 5858 5857 5854 5852 5851 5854 5853 5851 5848 5847
5753 5760 5766 5772 5778 5783 5789 5795 5799 5802 5806 5812 5817 5821 5824 5829 5834 5837 5841 5842 5844 5846 5849 5852 5853 5855 5857 5858 5858 5857 5859 5858 5857 5857 5855 5856 5854 5853 5853 5851 5849 5847 5847 5847 5846 5844 5842
5738 5746 5753 5758 5766 5773 5778 5783 5789 5793 5798 5803 5806 5812 5816 5820 5824 5828 5832 5833 5835 5837 5842 5844 5849 5848 5851 5850 5853 5853 5852 5853 5851 5852 5851 5850 5850 5850 5848 5847 5844 5844 5843 5841 5841 5841 5838
5730 5735 5743 5745 5753 5760 5767 5773 5779 5784 5789 5794 5799 5801 5806 5811 5815 5819 5823 5825 5827 5830 5834 5836 5840 5842 5844 5845 5846 5847 5848 5847 5847 5847 5849 5848 5845 5845 5845 5843 5840 5837 5836 5837 5835 5834 5835
5716 5720 5728 5735 5741 5748 5755 5761 5768 5774 5780 5784 5787 5792 5796 5802 5805 5810 5813 5816 5818 5822 5825 5829 5830 5837 5838 5840 5839 5838 5841 5842 5842 5841 5842 5842 5840 5839 5839 5838 5836 5831 5832 5833 5831 5830 5827
5699 5710 5714 5721 5728 5736 5743 5750 5756 5761 5768 5773 5776 5781 5787 5792 5795 5800 5805 5809 5812 5816 5818 5822 5824 5826 5832 5832 5833 5831 5833 5835 5836 5836 5836 5835 5835 5834 5833 5831 5831 5829 5824 5826 5825 5822 5818
5691 5697 5703 5707 5717 5723 5730 5738 5745 5752 5757 5763 5765 5770 5776 5781 5785 5789 5793 5798 5804 5804 5812 5812 5816 5818 5821 5823 5827 5825 5825 5828 5829 5829 5829 5831 5829 5829 5828 5825 5824 5824 5821 5819 5819 5816 5811
5685 5690 5696 5699 5705 5710 5717 5727 5735 5739 5745 5750 5757 5762 5765 5772 5774 5780 5786 5791 5790 5793 5797 5808 5804 5810 5811 5810 5818 5821 5819 5820 5822 5822 5822 5823 5822 5822 5822 5822 5819 5817 5813 5813 5811 5812 5810
5674 5681 5688 5694 5699 5705 5708 5716 5726 5733 5737 5741 5746 5752 5757 5762 5767 5771 5777 5780 5781 5783 5785 5795 5796 5798 5800 5803 5807 5811 5811 5813 5814 5816 5813 5816 5814 5814 5814 5814 5812 5812 5807 5804 5804 5802 5803
5663 5670 5677 5682 5688 5697 5703 5710 5717 5723 5729 5733 5738 5744 5750 5753 5760 5765 5770 5772 5775 5777 5779 5777 5784 5790 5787 5792 5796 5802 5803 5803 5806 5807 5807 5811 5808 5805 5808 5806 5805 5804 5802 5798 5796 5795 5788
5649 5657 5664 5671 5678 5685 5692 5699 5705 5712 5718 5724 5729 5735 5741 5747 5750 5758 5758 5761 5767 5771 5770 5773 5775 5780 5780 5782 5786 5791 5793 5795 5797 5797 5799 5803 5799 5800 5800 5798 5798 5796 5793 5790 5788 5786 5784
5636 5643 5652 5658 5665 5673 5680 5687 5694 5700 5707 5713 5719 5724 5731 5736 5739 5746 5750 5754 5759 5761 5765 5767 5766 5771 5774 5775 5778 5781 5784 5787 5789 5789 5791 5793 5792 5792 5792 5791 5791 5790 5786 5781 5778 5777 5775
5621 5630 5637 5645 5653 5660 5668 5675 5682 5688 5694 5701 5707 5713 5719 5725 5729 5734 5739 5744 5749 5752 5757 5760 5759 5760 5765 5768 5770 5771 5774 5778 5781 5781 5782 5782 5787 5782 5784 5784 5785 5782 5779 5774 5765 5763 5763
5605 5614 5623 5630 5637 5646 5654 5661 5668 5674 5681 5688 5695 5702 5707 5713 5717 5722 5728 5733 5740 5745 5749 5752 5753 5753 5757 5760 5761 5763 5766 5769 5772 5772 5773 5774 5776 5776 5775 5777 5777 5774 5772 5768 5761 5757 5751
5590 5599 5606 5615 5623 5631 5639 5647 5654 5660 5668 5675 5682 5689 5697 5699 5705 5712 5717 5725 5728 5735 5739 5739 5745 5748 5749 5752 5752 5754 5757 5761 5764 5764 5764 5766 5767 5767 5767 5767 5767 5765 5762 5759 5754 5745 5739
5572 5583 5592 5600 5608 5616 5624 5632 5639 5646 5653 5661 5667 5676 5684 5686 5692 5699 5706 5714 5720 5725 5727 5734 5735 5740 5741 5744 5744 5748 5750 5753 5753 5756 5756 5756 5759 5760 5760 5758 5756 5754 5752 5749 5746 5741 5733
5555 5565 5575 5584 5593 5602 5609 5617 5624 5632 5639 5648 5655 5663 5670 5674 5682 5693 5701 5706 5712 5714 5718 5721 5727 5730 5734 5737 5737 5739 5742 5744 5746 5745 5747 5749 5747 5747 5751 5749 5747 5745 5744 5742 5739 5733 5725
5538 5547 5558 5568 5576 5584 5593 5601 5609 5617 5626 5635 5642 5650 5657 5663 5675 5683 5689 5695 5700 5705 5708 5713 5717 5720 5723 5728 5729 5729 5733 5736 5737 5738 5739 5740 5737 5737 5737 5741 5740 5736 5733 5731 5729 5724 5718
5520 5530 5541 5551 5560 5568 5576 5585 5593 5604 5612 5619 5626 5634 5642 5651 5665 5671 5676 5683 5690 5697 5701 5703 5708 5713 5717 5719 5721 5722 5725 5726 5728 5729 5730 5730 5729 5728 5727 5727 5727 5725 5722 5720 5720 5711 5705
5501 5512 5522 5533 5541 5552 5560 5568 5577 5587 5597 5603 5611 5621 5634 5646 5652 5658 5667 5677 5684 5686 5689 5693 5699 5704 5707 5711 5714 5714 5717 5718 5719 5722 5720 5719 5719 5718 5719 5717 5715 5714 5710 5713 5709 5703 5693
5479 5493 5503 5514 5524 5533 5543 5552 5560 5570 5579 5589 5601 5611 5621 5634 5639 5646 5657 5669 5674 5674 5681 5689 5692 5695 5698 5699 5705 5708 5707 5709 5709 5711 5709 5710 5707 5707 5706 5707 5706 5701 5701 5703 5697 5693 5685
5456 5470 5482 5495 5506 5516 5524 5533 5544 5554 5565 5579 5589 5598 5608 5619 5626 5636 5651 5659 5665 5669 5675 5677 5682 5685 5688 5692 5693 5697 5698 5698 5699 5699 5700 5700 5699 5697 5692 5696 5692 5686 5696 5690 5684 5679 5672
5433 5448 5463 5475 5487 5497 5507 5517 5528 5540 5553 5566 5577 5586 5595 5606 5615 5630 5639 5646 5654 5659 5665 5669 5671 5675 5682 5679 5679 5682 5685 5685 5688 5690 5691 5691 5689 5685 5682 5682 5672 5677 5679 5677 5670 5663 5659
5412 5427 5442 5456 5468 5478 5489 5500 5514 5526 5539 5552 5562 5570 5581 5593 5609 5619 5627 5635 5639 5646 5654 5659 5664 5669 5669 5669 5671 5671 5672 5672 5676 5679 5680 5682 5679 5674 5671 5669 5663 5664 5669 5664 5657 5651 5647
5394 5407 5421 5436 5449 5461 5472 5485 5500 5512 5524 5538 5549 5559 5567 5581 5596 5603 5614 5623 5630 5636 5643 5649 5653 5658 5661 5662 5663 5660 5662 5666 5666 5670 5672 5670 5668 5667 5664 5659 5650 5654 5654 5650 5646 5639 5634
5376 5391 5405 5418 5432 5444 5457 5471 5486 5498 5509 5523 5536 5546 5554 5569 5580 5591 5601 5610 5618 5626 5632 5638 5643 5647 5649 5651 5652 5653 5655 5657 5656 5658 5660 5659 5657 5655 5654 5648 5642 5643 5640 5636 5633 5630 5622
5361 5375 5389 5402 5415 5429 5443 5458 5472 5485 5496 5508 5525 5533 5544 5556 5567 5579 5590 5599 5608 5615 5623 5629 5633 5636 5640 5641 5640 5643 5647 5649 5647 5649 5649 5648 5646 5645 5642 5638 5633 5634 5629 5627 5620 5614 5610
5349 5362 5375 5388 5402 5416 5429 5445 5458 5471 5482 5495 5512 5522 5532 5543 5559 5566 5578 5589 5599 5606 5611 5618 5624 5629 5634 5632 5634 5637 5637 5638 5638 5638 5638 5637 5637 5635 5633 5630 5627 5623 5618 5613 5610 5605 5599